Tracking 29059 objects as of 19-Jun-2024
HD Live streaming from Space Station
objects crossing your sky now

AFR-1

Track AFR-1 now!
10-day predictions


NORAD ID: 56964
Int'l Code: 2023-084AJ
Perigee: 511.5 km
Apogee: 530.0 km
Inclination: 97.5 °
Period: 94.9 minutes
Semi major axis: 6891 km
RCS: Unknown
Launch date: June 12, 2023
Source: India (IND)
Launch site: AIR FORCE WESTERN TEST RANGE (AFWTR)
Your satellite tracking list
Your tracking list is empty




NASA's NSSDC Master Catalog

Two Line Element Set (TLE):
1 56964U 23084AJ  24170.87939477  .00004487  00000-0  22729-3 0  9993
2 56964  97.5454 288.9319 0013455  15.7023 344.4625 15.17423378 56338
Source of the keplerian elements: AFSPC